[[{"header":{"parameterUnit":"m.s-1","parameterCategory":1,"la1":30.2991,"la2":30.254,"lo1":-89.0895,"lo2":-89.0444,"dy":0.0017,"dx":0.0017,"nx":28,"ny":28,"refTime":"2024-07-24T09:00:00:Z","depth":0,"parameterNumber":2,"parameterNumberName":"U-component_of_WINDS"},"data":[0,0,0,0,0,0,0,0,0,0,0,0,0,0,0,0,0,0,0,0,0,0,0,0,0,0,0,0,0,0,0,0,0,0,0,0,0,0,0,0,0,0,0,0,0,0,0,0,0,0,0,0,0,0,0,0,0,0,1.8213,1.8213,0,1.8173,1.8173,1.8172,1.8115,1.8114,1.8113,1.8112,1.8071,1.8071,1.8071,0,0,0,0,0,0,0,0,0,0,0,0,0,1.8237,1.8237,1.8213,1.8213,1.8212,1.8173,1.8173,1.8172,1.8115,1.8114,1.8113,1.8111,1.8071,1.8071,1.807,0,0,0,0,0,0,0,0,0,0,0,0,0,1.8215,1.8237,1.8213,1.8179,1.8175,1.8174,1.8173,1.8172,1.8115,1.8114,1.8112,1.8111,1.8071,1.8071,1.807,1.8099,0,0,1.807,1.807,0,0,0,0,0,0,0,0,1.8216,1.8214,1.8184,1.8181,1.8177,1.8148,1.8166,1.8148,1.8116,1.8138,1.8112,1.811,1.8098,1.8095,1.8091,1.8097,1.8095,1.807,1.807,1.8069,1.8069,0,0,0,0,0,0,0,1.8218,1.8216,1.8197,1.8184,1.818,1.8165,1.816,1.8162,1.8127,1.8136,1.8132,1.8128,1.8095,1.8091,1.8089,1.8095,1.807,1.8069,1.8069,1.8069,1.8118,1.8119,0,0,0,0,0,0,1.8225,1.8217,1.8199,1.8196,1.8194,1.8166,1.816,1.8159,1.8127,1.812,1.8129,1.8125,1.8092,1.809,1.8088,1.8116,1.8069,1.8069,1.8069,1.8116,1.8118,1.812,0,0,0,0,0,0,1.8226,1.8224,1.82,1.8206,1.8201,1.8167,1.8165,1.8159,1.8154,1.8121,1.8115,1.8132,1.8091,1.8088,1.8096,1.8114,1.8069,1.8069,1.8115,1.8117,1.8119,1.8175,0,0,0,0,0,0,1.8227,1.8224,1.8236,1.8206,1.8201,1.821,1.8167,1.8159,1.8154,1.8149,1.8122,1.8116,1.809,1.8096,1.8095,1.8113,1.8069,1.8113,1.8116,1.8118,1.8171,1.8178,1.8185,0,0,0,0,0,1.8228,1.8254,1.8236,1.8235,1.8215,1.8211,1.8208,1.8177,1.8156,1.8166,1.8144,1.8117,1.8112,1.8098,1.8096,1.8114,1.8112,1.8115,1.8118,1.8168,1.8177,1.8185,0,0,0,0,0,0,1.8286,1.8249,1.823,1.8247,1.8233,1.8201,1.8213,1.8189,1.818,1.8175,1.8137,1.8132,1.8143,1.8129,1.8114,1.8137,1.8108,1.8111,1.8146,1.8154,1.8161,1.8163,1.8068,0,0,0,0,0,1.8301,1.8302,1.8269,1.8288,1.8281,1.8249,1.8246,1.8223,1.8207,1.82,1.8179,1.8164,1.8158,1.8156,1.8149,1.8169,1.8161,1.818,1.8187,1.8193,1.8195,1.8201,1.8209,1.813,1.813,1.813,0,0,1.8332,1.8312,1.8315,1.8299,1.8285,1.8285,1.8244,1.8247,1.8246,1.8201,1.8206,1.819,1.817,1.8182,1.8187,1.8171,1.8215,1.8197,1.8202,1.8201,1.8205,1.8213,1.8219,1.8133,1.8132,1.8132,0,0,1.8388,1.8374,1.8386,1.8373,1.8352,1.8329,1.8332,1.8304,1.8292,1.8296,1.8261,1.8259,1.8252,1.8238,1.823,1.8278,1.8251,1.8277,1.8313,1.8319,1.8325,1.833,1.8345,1.8351,1.828,1.8281,1.8281,0,1.8429,1.8429,1.8396,1.84,1.8392,1.8351,1.8362,1.835,1.8329,1.8324,1.8307,1.8294,1.8278,1.8285,1.8297,1.8293,1.8293,1.828,1.8327,1.8332,1.8336,1.835,1.8355,1.8284,1.8283,1.8283,1.8283,0,1.8478,1.8479,1.8491,1.8469,1.8464,1.8472,1.8438,1.8437,1.8414,1.8393,1.8397,1.8376,1.8363,1.8363,1.8342,1.8367,1.8357,1.8334,1.8303,1.8347,1.8359,1.8364,1.8288,1.8287,1.8286,1.8285,0,0,1.8571,1.853,1.8535,1.8523,1.8496,1.8495,1.8499,1.8486,1.8484,1.847,1.8471,1.8465,1.8443,1.8434,1.841,1.8416,1.8451,1.8392,1.8391,1.8401,1.8474,1.849,1.8496,1.8434,1.8435,1.8436,1.8475,0,1.8619,1.8625,1.8595,1.8608,1.8606,1.8565,1.8569,1.8552,1.8532,1.8527,1.8505,1.85,1.8472,1.8466,1.847,1.8447,1.8465,1.8444,1.8433,1.8433,1.8437,1.8503,1.852,1.8558,1.8479,1.848,1.8481,0,1.8677,1.8665,1.8678,1.8647,1.8645,1.8649,1.8633,1.8629,1.8608,1.8593,1.8582,1.8554,1.8555,1.8526,1.8525,1.8511,1.8505,1.8493,1.8493,1.849,1.8458,1.8499,1.857,1.8575,1.8488,1.8487,1.8487,0,1.874,1.8727,1.8732,1.8723,1.8689,1.8692,1.8677,1.8655,1.8648,1.8634,1.8629,1.8615,1.8608,1.8597,1.8566,1.8548,1.8567,1.8537,1.8553,1.8554,1.8558,1.8558,1.8626,1.8558,1.8558,1.8558,1.8557,0,1.8796,1.8805,1.8759,1.8762,1.877,1.8734,1.8742,1.8724,1.8704,1.8701,1.8666,1.8664,1.8624,1.8618,1.8593,1.8594,1.8592,1.8578,1.8571,1.858,1.8582,1.8574,1.857,1.8559,1.8559,1.8558,1.8558,0,1.8866,1.8836,1.8839,1.8805,1.8797,1.8804,1.8774,1.8775,1.8752,1.8749,1.8747,1.8711,1.8701,1.8669,1.8652,1.8635,1.8643,1.8631,1.865,1.8645,1.8662,1.866,1.8727,1.8732,1.8663,1.8663,1.8664,0,1.8903,1.8909,1.8875,1.8871,1.8858,1.8852,1.8844,1.8809,1.8802,1.8777,1.878,1.8767,1.8754,1.874,1.8712,1.8697,1.8684,1.8708,1.8681,1.8689,1.8681,1.868,1.8679,1.8714,1.8715,1.8715,1.8716,0,1.8971,1.8955,1.8946,1.893,1.8922,1.8908,1.8892,1.8891,1.8851,1.8844,1.8833,1.8824,1.8805,1.8791,1.8772,1.8756,1.8728,1.8725,1.8727,1.8735,1.8745,1.8737,1.8663,1.8723,1.8722,1.8722,1.8721,1.8721,1.9024,1.9026,1.9002,1.8991,1.8975,1.8961,1.8959,1.8935,1.8926,1.8907,1.8887,1.8877,1.8853,1.8825,1.881,1.8801,1.8787,1.8791,1.8792,1.8793,1.8796,1.8748,1.8798,1.8798,1.8798,1.8797,1.8797,0,1.9087,1.9069,1.906,1.9039,1.903,1.9005,1.8986,1.898,1.8972,1.8952,1.894,1.8926,1.8912,1.8883,1.8866,1.8864,1.8851,1.8861,1.886,1.8856,1.8811,1.881,1.8872,1.8872,1.8872,1.8872,1.8872,1.8872,1.9119,1.912,1.9101,1.9093,1.9075,1.9065,1.9056,1.9041,1.9025,1.9011,1.8999,1.898,1.8955,1.8936,1.8921,1.8913,1.8907,1.892,1.8908,1.8866,1.8859,1.8852,1.885,1.892,1.892,1.8952,1.8953,1.8953]},{"header":{"parameterUnit":"m.s-1","parameterCategory":1,"la1":30.2991,"la2":30.254,"lo1":-89.0895,"lo2":-89.0444,"dy":0.0017,"dx":0.0017,"nx":28,"ny":28,"refTime":"2024-07-24T09:00:00:Z","depth":0,"parameterNumber":3,"parameterNumberName":"V-component_of_WINDS"},"data":[0,0,0,0,0,0,0,0,0,0,0,0,0,0,0,0,0,0,0,0,0,0,0,0,0,0,0,0,0,0,0,0,0,0,0,0,0,0,0,0,0,0,0,0,0,0,0,0,0,0,0,0,0,0,0,0,0,0,3.1604,3.1604,0,3.164,3.164,3.1641,3.1602,3.1601,3.1599,3.1598,3.1633,3.1635,3.1637,0,0,0,0,0,0,0,0,0,0,0,0,0,3.1498,3.15,3.1604,3.1604,3.1604,3.164,3.164,3.1641,3.1602,3.1601,3.1599,3.1597,3.1632,3.1635,3.1637,0,0,0,0,0,0,0,0,0,0,0,0,0,3.154,3.1501,3.1603,3.159,3.1589,3.164,3.164,3.1641,3.1603,3.1601,3.1598,3.1596,3.1631,3.1634,3.1638,3.1703,0,0,3.1648,3.165,0,0,0,0,0,0,0,0,3.1537,3.1544,3.1591,3.1591,3.159,3.1614,3.1616,3.1662,3.1603,3.1597,3.1598,3.1595,3.1628,3.1632,3.1643,3.1705,3.1706,3.1649,3.1651,3.1652,3.1653,0,0,0,0,0,0,0,3.1535,3.1542,3.1618,3.1592,3.1591,3.158,3.1584,3.1624,3.1625,3.1598,3.1595,3.16,3.1627,3.164,3.1644,3.1707,3.1648,3.1652,3.1654,3.1655,3.1822,3.1824,0,0,0,0,0,0,3.1534,3.154,3.1617,3.1619,3.1558,3.1584,3.1588,3.1609,3.1624,3.1624,3.1602,3.1598,3.1635,3.164,3.1645,3.1721,3.1652,3.1655,3.1657,3.1819,3.1822,3.1825,0,0,0,0,0,0,3.1532,3.1541,3.1615,3.1579,3.1587,3.1588,3.1612,3.161,3.1623,3.1627,3.1627,3.1615,3.1634,3.164,3.1689,3.1722,3.1657,3.166,3.1817,3.182,3.1824,3.1875,0,0,0,0,0,0,3.1529,3.154,3.1566,3.158,3.1589,3.166,3.1614,3.1613,3.1629,3.1625,3.1639,3.164,3.1632,3.1684,3.1692,3.1725,3.1663,3.1814,3.1818,3.1822,3.187,3.188,3.1888,0,0,0,0,0,3.1525,3.1579,3.1568,3.1577,3.1622,3.1662,3.1667,3.1658,3.1632,3.1657,3.166,3.1639,3.1717,3.1689,3.1698,3.1733,3.1812,3.1817,3.1822,3.1866,3.1878,3.1888,0,0,0,0,0,0,3.1569,3.1581,3.1568,3.1629,3.1644,3.1655,3.1687,3.1671,3.1694,3.1689,3.1676,3.168,3.1731,3.1737,3.1706,3.1796,3.176,3.1767,3.179,3.1801,3.181,3.1807,3.1666,0,0,0,0,0,3.1586,3.1619,3.1626,3.1679,3.1687,3.1686,3.1703,3.1695,3.171,3.1717,3.1723,3.1738,3.1765,3.1784,3.181,3.1871,3.1873,3.1899,3.1908,3.1916,3.1922,3.1953,3.1964,3.1842,3.1842,3.1842,0,0,3.1621,3.1631,3.1653,3.1688,3.1699,3.1732,3.1692,3.1728,3.1752,3.1722,3.1768,3.1773,3.1789,3.1844,3.1868,3.185,3.1956,3.1922,3.1928,3.193,3.1959,3.1971,3.1981,3.1846,3.1845,3.1845,0,0,3.1701,3.1713,3.1757,3.1769,3.1787,3.1785,3.1796,3.1809,3.1811,3.1857,3.1835,3.1862,3.1911,3.1923,3.1935,3.2018,3.1999,3.2027,3.2073,3.2103,3.2113,3.2121,3.2149,3.216,3.2033,3.2033,3.2033,0,3.1742,3.1791,3.1782,3.1819,3.1835,3.181,3.1853,3.1865,3.189,3.1901,3.188,3.194,3.1949,3.2005,3.2025,3.2037,3.2047,3.2025,3.2112,3.2121,3.2128,3.2155,3.2166,3.2036,3.2036,3.2036,3.2036,0,3.184,3.1874,3.1907,3.1932,3.1951,3.1992,3.1987,3.2007,3.1997,3.1997,3.2044,3.2054,3.208,3.2093,3.2084,3.2148,3.2136,3.2114,3.2077,3.2143,3.2168,3.2178,3.2041,3.204,3.2039,3.2038,0,0,3.1949,3.1968,3.198,3.199,3.2007,3.2033,3.2071,3.2098,3.2115,3.2133,3.2164,3.2205,3.2184,3.2198,3.219,3.2217,3.228,3.2191,3.2191,3.2206,3.2349,3.2364,3.2376,3.2268,3.227,3.2271,3.2347,0,3.2029,3.2096,3.2088,3.2152,3.2182,3.2158,3.2191,3.2205,3.2206,3.2231,3.2231,3.226,3.2232,3.224,3.2265,3.2267,3.2308,3.2261,3.2295,3.2296,3.229,3.2389,3.2406,3.2477,3.2357,3.2358,3.236,0,3.213,3.2152,3.2219,3.223,3.2242,3.2272,3.2295,3.232,3.2334,3.2332,3.2347,3.2334,3.2371,3.2334,3.2384,3.2352,3.2365,3.2368,3.237,3.2372,3.2331,3.2392,3.25,3.251,3.2375,3.2374,3.2373,0,3.2201,3.2247,3.2292,3.2302,3.2317,3.2338,3.2345,3.2357,3.2373,3.2392,3.2402,3.2426,3.2438,3.2456,3.2449,3.2423,3.2499,3.2462,3.2498,3.2498,3.2514,3.2513,3.2624,3.2525,3.2525,3.2525,3.2525,0,3.229,3.2331,3.2324,3.2352,3.2397,3.2387,3.2432,3.2435,3.2446,3.2473,3.2454,3.248,3.2469,3.2494,3.2488,3.2529,3.2535,3.2534,3.2532,3.2535,3.2535,3.2543,3.2537,3.2528,3.2527,3.2527,3.2526,0,3.2376,3.2374,3.2421,3.2431,3.2434,3.2467,3.2474,3.25,3.2499,3.2533,3.2541,3.2539,3.2567,3.2562,3.2593,3.2588,3.264,3.2632,3.2635,3.2633,3.2668,3.2664,3.2786,3.2801,3.2694,3.2695,3.2696,0,3.2433,3.2464,3.2477,3.2494,3.2502,3.253,3.2546,3.2536,3.2553,3.2571,3.2594,3.262,3.2641,3.2686,3.2687,3.271,3.2702,3.2743,3.2705,3.2707,3.27,3.2698,3.27,3.275,3.2751,3.2752,3.2753,0,3.2532,3.2529,3.2553,3.2576,3.2596,3.2613,3.2629,3.2644,3.2636,3.2656,3.2684,3.27,3.2731,3.2757,3.2778,3.2783,3.2766,3.2765,3.2774,3.2777,3.2777,3.2776,3.2654,3.2762,3.2761,3.2761,3.276,3.276,3.2604,3.263,3.2642,3.2669,3.268,3.2695,3.2719,3.2721,3.2745,3.2769,3.2762,3.2794,3.2806,3.2832,3.284,3.2864,3.2849,3.2863,3.2866,3.2869,3.2872,3.2774,3.2868,3.2868,3.2868,3.2868,3.2867,0,3.2701,3.2707,3.2732,3.2755,3.2776,3.2759,3.2775,3.2793,3.2821,3.2834,3.2854,3.2886,3.2911,3.2913,3.2936,3.2955,3.2947,3.2961,3.2959,3.296,3.2886,3.2875,3.2966,3.2966,3.2966,3.2966,3.2966,3.2966,3.2754,3.2796,3.2794,3.2841,3.2847,3.2879,3.2889,3.2902,3.2912,3.2948,3.2969,3.297,3.2979,3.3002,3.3023,3.3023,3.3031,3.3048,3.3044,3.2975,3.2965,3.2956,3.2945,3.305,3.305,3.3116,3.3117,3.3117]}]]